Погода в Сан-Педро-дель-Икуамандийю

Парагвай     24°05′08″S   57°04′29″W
темп.,
°C
ветер,
м/с
пор.,
м/с
влажн.,
%
обл.,
%
осадки,
мм/ч
давл.,
гПа
погр.,
м
27 ноября, сб
сб2700:00+19вюв23800 0.0 100878
03:00+17вюв22920 0.0 100844
06:00+16вюв25950 0.0 1007108
09:00+26в24480 0.0 1008739
12:00+34всв21240 0.0 10061491
15:00+38с22180 0.0 10022036
18:00+35с12240 0.0 1001449
21:00+24в25480 0.0 100272
28 ноября, вс
вс2800:00+24в3105162 0.0 1002211
03:00+22в2456100 0.0 100290
06:00+24всв2852100 0.0 1003194
09:00+31с3954100 0.0 1004667
12:00+35зсз4842100 0.1 10042214
15:00+23ю4119354 6.9 1005687
18:00+23вюв379177 2.5 1006619
21:00+21з119964 4.6 100817
29 ноября, пн
пн2900:00+21юз119999 1.2 100816
03:00+21юз129983 1.4 100767
06:00+20ююз399697 0.1 1008438
09:00+24ю355987 0.1 1010790
12:00+30ю3427100 0.0 10081660
15:00+32ю342132 0.0 10062107
18:00+30ю352837 0.0 10051149
21:00+21ю295295 0.0 1007169
30 ноября, вт
вт3000:00+19ююв26680 0.0 1008114
03:00+17вюв12800 0.0 100827
06:00+16юв11855 0.0 101011
09:00+26вюв24465 0.0 1012700
12:00+32ююв34270 0.0 10102006
15:00+34ююв34245 0.0 10072257
18:00+32юв24271 0.0 10061142
21:00+22юв26510 0.0 100795
1 декабря, ср
ср100:00+19юв23650 0.0 100850
03:00+18вюв22700 0.0 100736
06:00+17в24730 0.0 100881
09:00+27всв23415 0.0 1009428
12:00+36ссв11211 0.0 10071928
15:00+38с21164 0.0 10042613
18:00+35ююв012343 0.0 1003407
21:00+24в264992 0.0 1006106